Regional Weather Roundup
Issued by NWS Jackson, KY

Home | Current Version | Previous Version | Graphics & Text | Print | Product List | Glossary On
Versions: 1 2 3 4 5 6 7 8 9 10 11 12 13 14 15 16 17 18 19 20 21 22 23 24 25 26 27
000
ASUS43 KJKL 230810
RWRJKL

EAST KENTUCKY HOURLY WEATHER ROUNDUP
NATIONAL WEATHER SERVICE JACKSON KY
400 AM EDT TUE MAY 23 2017

NOTE: "FAIR" INDICATES FEW OR NO CLOUDS BELOW 12,000 FEET WITH
NO SIGNIFICANT WEATHER AND/OR OBSTRUCTIONS TO VISIBILITY.

* THESE REPORTS ARE NOT UNDER NWS QUALITY CONTROL AND MAY NOT
  REPORT WEATHER SUCH AS PRECIPITATION AND FOG.

KYZ079-080-083-085-087-088-110-112-115-119-120-230900
...EASTERN KENTUCKY...

CITY           SKY/WX    TMP DP  RH WIND       PRES   REMARKS
JACKSON        CLOUDY    56  50  80 VRB3      29.91F
LONDON         CLOUDY    57  52  83 N5        29.90F
SOMERSET*      CLOUDY    55  50  82 CALM      29.91S
MONTICELLO*    CLOUDY    58  55  90 W7        29.92S
WILLIAMSBURG*  CLOUDY    55  55 100 CALM      29.90S
MIDDLESBORO*   CLOUDY    58  58  99 CALM      29.90F
HARLAN APT*    CLOUDY    55  54  94 CALM      29.90F
PIKE CO APT*     N/A     55  55 100 NE5       29.91F
BIG SANDY APT* CLOUDY    55  54  97 NE3       29.91F
MOREHEAD APT*  CLOUDY    55  50  82 CALM      29.94F
$$

KYZ035-036-041-042-044-050-067-078-099-230900
...CENTRAL KENTUCKY...

CITY           SKY/WX    TMP DP  RH WIND       PRES   REMARKS
MT STERLING*   CLOUDY    55  52  88 E3        29.93F
FLEMING/MASON* CLOUDY    52  51  96 CALM      29.93F
DANVILLE*      CLOUDY    55  52  88 CALM      29.91F
LEXINGTON      CLOUDY    60  49  66 E6        29.90F
FRANKFORT      CLOUDY    58  50  75 VRB3      29.89F
LOUISVILLE     CLOUDY    58  52  80 CALM      29.90F
LEBANON*         N/A     57  54  88 CALM      29.91S
GLASGOW*       CLOUDY    59  54  82 NE3       29.89F
BOWLING GREEN  CLOUDY    61  56  83 NE3       29.89F
$$

KYZ091>093-OHZ055-061-077-WVZ005-015-034-035-042-230900
...SOUTHERN OHIO/WEST VIRGINIA...

CITY           SKY/WX    TMP DP  RH WIND       PRES   REMARKS
COVINGTON      CLOUDY    54  47  77 CALM      29.92F
COLUMBUS       CLOUDY    53  48  83 CALM      29.94F
DAYTON         CLOUDY    53  46  77 CALM      29.93F
WILMINGTON     CLOUDY    53  47  79 E5        29.92F
HUNTINGTON     CLOUDY    53  51  93 E3        29.92F
CHARLESTON     CLOUDY    53  52  96 CALM      29.94F FOG
PINEVILLE*     CLOUDY    55  54  97 MISG      29.98F
BECKLEY        CLOUDY    52  50  93 E3        29.97F
BLUEFIELD      CLOUDY    52  50  93 CALM      29.97F
LOGAN CO APT*    N/A     55  54  94 CALM      29.92F
$$

VAZ002-007-008-TNZ017-027-036-066-071-230900
...SOUTHWEST VIRGINIA/EAST TENNESSEE...

CITY           SKY/WX    TMP DP  RH WIND       PRES   REMARKS
WISE*          CLOUDY    55  55 100 CALM      29.94F
JONESVILLE*      N/A     59  59 100 CALM      29.91F
ABINGDON*      CLOUDY    62  58  87 E5        29.92F
BRISTOL        CLOUDY    62  59  90 CALM      29.89F
MORRISTOWN*    CLOUDY    63  61  94 CALM      29.85F
SEVIERVILLE*   PTSUNNY   63  63 100 CALM      29.85F
KNOXVILLE      CLOUDY    64  62  93 CALM      29.86F
LAFOLLETTE*    CLOUDY    61  59  94 CALM      29.92S
OAK RIDGE      CLOUDY    62  58  86 CALM      29.89F
CROSSVILLE     CLOUDY    59  56  89 SE3       29.91F
NASHVILLE      CLOUDY    64  54  69 NE5       29.87F
$$

...KEY TO REMARKS...
VSB - VISIBILITY IN MILES
WCI - WIND CHILL INDEX
HX  - HEAT INDEX

$$




USA.gov is the U.S. government's official web portal to all federal, state and local government web resources and services.